OBJECT A, 60745

Orbit data source: Space-Track

You're viewing an Uncataloged Satellite

Recently launched and/or uncataloged satellites may have evolving metadata. Metadata may include but not limited to: Owner, Maufacturer, Bus, Motor, and Mission.

OBJECT A, 60745 is a satellite owned by Yunyao yuhang (CN) in SSO that was launched on Thu, 29 Aug 2024 UTC via a GUSHENXING 1 launch vehicle from the Yellow Sea Launch Area, China (YSLA). Unknown objects in Earth's orbit typically refer to objects detected orbiting the Earth but have not yet been identified or cataloged. These objects could be anything from previously untracked satellites, spent rocket stages, debris from satellite collisions, or even natural meteoroids temporarily captured by Earth's gravity.

Loading next visibility...
OBJECT A details
Identifier
60745, 2024-153A
Orbit
SSO
Last TLE update8 hours ago
Origin
Flag of CNYunyao yuhang (CN / PRC)
ManufacturerYunyao yuhang
MissionOperational spacecraft
Bus & MotorYY-1, Unknown motor
Mass~50 kg wet, ~50 kg dry
Launch date (UTC)
2024-08-29 (5 months ago)
Launch vehicle
GUSHENXING 1
Launch site
Yellow Sea Launch Area, China (YSLA)
Object typeUnknown
Shape & HBRUnknown
Radar Cross SectionMedium (>0.1 m² and <1 m²)

Expand to show TLE details & history

TLE from 8 hours ago
0 OBJECT A
1 60745U 24153A   25014.88757921  .00012265  00000-0  66042-3 0  9993
2 60745  97.6240 138.1708 0014572 167.4300 192.7298 15.14882196 20960
Epoch: 2025-01-14T21:18Z
Definitive object data (Epoch: 2025-01-14T21:18:06.843Z)
Latitude-0.00004°
Longitude64.05447°
Altitude534.223 km
Speed7.59 km/s
True Right ascension09h 12m 40s
True Declination0° 00' 00"
Sunlit
Object was in full shadow at TLE epoch
Visualization TLE readout
Latitude61.41336°
Longitude-101.45274°
Altitude525.163 km
Speed7.61 km/s
Apparent Right ascension19h 53m 33s
Apparent Declination15° 09' 13"
Sunlit
Object is in daylight
Visualization observer readout
Local Sidereal Time06:24:03
Azimuth334.585° NNW
Elevation-31.121°
Doppler factor1
Orbital elements
Apogee altitude528.368 km
Perigee altitude508.269 km
Semi-major axis6,896.455 km
Eccentricity0.0014572
Inclination97.624°
RAAN138.1708°
Arg. of periapsis167.43°
True anomaly192.69307°
Mean anomaly192.7298°
Eccentric anomaly192.71143°
Mean motion3.7897 °/min
BSTAR0.00066042
Orbital period94.99 mins
Loading maneuver chart data...
Loading historical data...
Loading historical data...
Loading historical data...
Loading historical data...
Loading historical data...
Loading historical data...
Loading historical data...

OBJECT A Visibility forecast

Observer location: undefined°, undefined

Span
Click to sort rows by Start time (UTC) header in descending order
Start Az.
Max El. time (UTC)
Max El. Az.
Max El.
End time (UTC)
End Az.
6 mins2025-01-15 08:31:47.786Z196.823° SSW2025-01-15 08:34:47.786Z281.057° WNW32.35°2025-01-15 08:37:47.786Z332.091° NNW
4 mins2025-01-15 21:39:47.786Z324.087° NNW2025-01-15 21:40:47.786Z299.937° NW23.652°2025-01-15 21:43:47.786Z236.206° WSW
|